This is the latest recevied weather packets stored in our database for station/object K9ZOG. If no packets are shown the sender has not sent any weather packets the latest 10 day(s).
| Time | Temp. | Humidity | Pressure | Rain* | Wind** | Luminosity | Snow |
|---|---|---|---|---|---|---|---|
| 1777505353 | 7.78° C | 87% | 1014.8 hPa | 0 mm | - | 12 W/m² | - |
| 1777505053 | 7.78° C | 87% | 1014.7 hPa | 0 mm | - | 24 W/m² | - |
| 1777504753 | 8.33° C | 89% | 1015.1 hPa | 0 mm | - | 37 W/m² | - |
| 1777504453 | 8.33° C | 90% | 1015.3 hPa | 0 mm | - | 38 W/m² | - |
| 1777504153 | 8.33° C | 90% | 1015.4 hPa | 0 mm | - | 29 W/m² | - |
| 1777503853 | 8.33° C | 90% | 1015.3 hPa | 0 mm | - | 26 W/m² | - |
| 1777503553 | 8.33° C | 89% | 1015.3 hPa | 0 mm | - | 44 W/m² | - |
| 1777503253 | 8.33° C | 89% | 1015.2 hPa | 0 mm | - | 65 W/m² | - |
| 1777502953 | 8.33° C | 89% | 1015.2 hPa | 0 mm | - | 62 W/m² | - |
| 1777502655 | 8.33° C | 89% | 1015.2 hPa | 0 mm | - | 71 W/m² | - |
| 1777502353 | 8.33° C | 89% | 1015.2 hPa | 0 mm | - | 50 W/m² | - |
| 1777502053 | 8.33° C | 89% | 1015.3 hPa | 0 mm | - | 32 W/m² | - |
| 1777501753 | 8.33° C | 88% | 1015.2 hPa | 0 mm | - | 21 W/m² | - |
| 1777501453 | 8.33° C | 88% | 1015.1 hPa | 0 mm | - | 22 W/m² | - |
| 1777501153 | 8.33° C | 87% | 1014.9 hPa | 0 mm | - | 28 W/m² | - |
| 1777500853 | 8.89° C | 87% | 1014.8 hPa | 0 mm | - | 36 W/m² | - |
| 1777500553 | 8.89° C | 86% | 1014.7 hPa | 0 mm | - | 25 W/m² | - |
| 1777500253 | 8.89° C | 86% | 1014.6 hPa | 0 mm | - | 17 W/m² | - |
| 1777499953 | 8.89° C | 86% | 1014.4 hPa | 0 mm | - | 20 W/m² | - |
| 1777499653 | 8.89° C | 86% | 1014.4 hPa | 0 mm | - | 21 W/m² | - |
| 1777499353 | 8.89° C | 85% | 1014.3 hPa | 0 mm | - | 30 W/m² | - |
| 1777499054 | 9.44° C | 85% | 1014.2 hPa | 0 mm | - | 39 W/m² | - |
| 1777498754 | 9.44° C | 84% | 1014 hPa | 0 mm | - | 44 W/m² | - |
| 1777498455 | 9.44° C | 84% | 1014 hPa | 0 mm | - | 54 W/m² | - |
| 1777498153 | 9.44° C | 84% | 1013.9 hPa | 0 mm | - | 70 W/m² | - |
* Rain latest hour (hover to see other rain measurements)
** Current wind speed in m/s (hover to see current wind gust speed)